Wetbulb
46.74 48.47 49.25 49.22 48.95 49.24 49.87 50.16 48.95 48.67 48.85 48.20 47.76 48.91 49.52 50.84 51.66 53.06 54.03 55.81 57.54 57.82 57.66 60.56 64.28 66.52 66.57 65.94 66.22 66.11 65.27 64.84 65.08 60.95 59.08 59.05 59.12 59.49 60.11 60.66 59.92 59.79 60.45
45.42 46.68 47.00 47.21 47.63 48.01 48.54 49.18 49.81 50.11 48.98 48.87 47.89 48.81 48.54 50.32 51.53 52.54 53.37 54.46 55.67 57.50 57.78 57.22 61.73 64.70 66.09 65.96 66.04 66.12 64.71 64.55 63.60 60.83 58.71 55.16 56.12 57.83 59.54 60.14 60.71 60.10 59.75
42.67 43.38 44.27 45.05 45.91 45.93 46.74 48.39 49.96 50.96 49.87 48.76 48.79 48.89 48.91 49.44 49.37 50.67 52.05 53.88 54.84 55.66 57.51 57.56 57.95 63.36 65.08 65.09 65.15 65.15 64.57 62.78 63.43 62.26 57.70 53.99 53.28 53.94 57.40 59.01 60.08 60.43 59.76
41.96 42.14 42.63 43.10 44.25 45.65 46.88 47.90 49.58 51.51 51.24 49.05 47.99 47.12 46.62 46.02 48.17 49.42 50.98 52.34 54.56 55.34 56.27 57.55 57.45 57.34 63.10 64.01 64.98 65.58 64.50 63.99 61.62 60.51 60.86 57.72 57.56 54.23 53.14 56.83 59.55 61.16 60.35
41.66 41.78 42.82 44.23 45.63 46.93 46.85 48.29 49.53 51.24 50.63 49.45 48.68 47.73 47.24 47.98 48.76 49.82 50.58 51.78 53.67 55.26 55.86 56.70 56.95 57.07 57.49 61.84 64.12 63.50 63.25 63.63 62.36 60.37 59.59 58.33 58.17 58.34 55.07 52.12 55.69 59.39 60.17
41.54 42.69 43.85 44.64 45.45 47.51 49.22 49.96 51.22 50.59 50.19 49.91 49.61 48.56 47.69 47.61 47.39 48.01 49.14 51.20 53.03 54.76 55.77 56.49 56.94 57.43 57.70 57.97 61.40 63.19 63.85 63.78 63.13 62.00 60.67 58.55 57.47 56.28 56.25 54.05 54.42 55.49 58.06
41.65 41.51 41.49 42.49 44.38 46.19 47.35 49.90 50.69 49.72 50.13 50.00 50.36 49.91 48.88 48.28 47.53 47.68 48.69 49.86 52.08 53.86 55.22 56.01 56.13 56.67 57.01 57.54 58.96 61.16 62.69 63.42 61.72 61.50 60.05 60.10 59.57 58.98 57.61 55.57 55.10 55.07 57.03
41.39 41.20 41.45 42.16 43.15 44.18 44.77 46.11 47.85 47.13 46.54 46.06 48.65 50.66 49.88 48.79 48.55 48.52 49.32 50.66 52.04 53.75 55.30 55.58 56.08 56.49 57.17 57.98 58.24 58.60 60.65 61.71 62.06 61.18 61.10 60.29 60.23 59.78 58.81 57.25 54.46 53.90 55.06
40.80 40.98 41.76 42.21 42.57 42.85 43.06 44.00 45.80 48.99 46.51 46.52 47.09 46.79 48.33 48.69 48.25 48.53 49.42 50.98 52.41 53.76 54.18 55.05 54.97 55.73 56.74 57.10 57.23 58.46 58.51 60.08 60.83 61.58 61.23 60.24 60.16 59.59 59.48 58.57 57.65 54.81 51.62
40.68 40.90 41.58 42.00 42.04 42.06 42.32 43.44 44.71 46.18 48.82 47.54 47.96 47.01 46.93 48.04 48.48 48.66 48.72 50.11 51.35 53.25 53.94 54.54 54.70 54.98 55.51 56.26 56.92 57.09 59.05 59.06 60.01 60.66 60.70 60.36 59.96 59.49 59.09 58.68 58.40 57.61 55.61
39.75 39.87 40.40 41.66 42.08 42.15 41.99 42.22 42.89 44.21 45.52 47.16 49.46 46.74 45.27 46.43 47.56 48.49 49.18 49.84 51.11 51.96 52.59 53.99 54.37 54.32 55.10 55.01 54.86 55.93 57.37 58.52 58.44 58.39 60.20 59.29 59.46 59.03 58.72 58.18 58.01 57.42 57.44
40.71 40.16 40.22 40.53 40.74 40.80 41.00 41.29 41.91 42.01 42.91 45.08 45.88 46.71 45.70 45.89 46.35 47.59 49.03 49.96 51.36 52.33 52.83 53.56 53.86 54.76 54.15 53.90 54.33 54.25 55.09 56.64 58.28 58.19 58.33 58.33 58.86 58.41 58.43 58.12 57.89 57.71 58.25
39.93 39.26 39.17 38.89 38.88 39.31 40.14 40.54 40.85 41.19 41.63 42.68 43.07 43.55 45.03 47.77 46.59 47.49 48.94 50.23 50.62 51.36 52.26 52.81 52.85 53.11 53.62 53.61 53.66 54.14 54.58 55.24 56.58 58.00 57.37 56.96 57.19 56.71 57.49 57.51 57.73 58.22 58.19
38.92 38.33 37.64 37.83 37.65 37.69 37.90 38.93 40.06 40.77 40.53 39.92 39.30 40.51 42.16 44.26 46.76 49.35 49.21 50.51 51.45 51.50 52.04 53.14 53.56 53.57 53.60 54.41 54.52 54.49 54.13 54.32 55.36 57.52 58.11 57.63 56.98 56.38 56.56 56.89 56.98 57.29 57.31
38.47 37.72 37.28 36.82 35.65 34.73 35.64 37.19 37.73 38.64 38.93 36.20 36.77 38.29 40.39 42.61 45.67 48.06 51.75 51.00 51.74 52.87 53.76 54.01 53.72 53.89 54.34 54.75 53.53 54.10 54.12 54.67 54.61 55.60 58.00 58.46 56.72 53.69 56.19 57.43 57.31 57.19 56.76
38.19 37.93 37.67 36.57 34.20 33.50 34.11 35.44 36.16 36.66 37.35 34.86 34.96 37.03 38.98 41.01 44.24 46.93 50.47 51.30 50.68 50.65 49.71 48.93 50.79 51.95 53.77 51.75 51.79 53.71 54.66 54.59 54.43 54.79 56.07 56.70 52.51 53.47 53.75 53.93 54.58 57.03 56.75
38.10 37.56 36.84 35.36 32.78 32.86 34.22 34.23 35.11 36.06 36.07 34.98 35.58 36.04 37.90 39.11 43.35 45.03 45.48 45.46 45.10 45.45 44.80 44.34 44.61 43.94 44.29 46.23 48.38 50.19 54.58 55.13 55.07 54.40 53.91 55.02 55.71 52.34 56.11 53.90 53.44 53.27 53.42
38.05 37.60 35.93 33.11 31.63 32.24 33.04 34.96 34.85 34.32 34.66 34.28 34.47 35.49 36.61 37.32 39.37 40.98 41.05 41.12 40.92 40.46 40.18 40.27 40.72 40.66 41.51 44.72 47.85 49.14 52.73 52.53 47.81 47.00 48.15 47.09 46.37 46.78 49.07 56.17 55.83 56.08 56.74
37.51 36.66 35.49 32.31 30.67 30.25 32.00 33.47 33.14 33.25 33.30 33.11 33.19 34.49 35.69 35.70 36.47 37.27 38.16 39.31 38.40 37.31 36.90 37.33 37.47 38.26 39.53 43.14 46.23 48.82 50.54 44.36 43.35 43.55 44.16 44.49 44.51 45.73 47.13 47.52 46.84 46.98 45.81
38.33 36.75 35.93 32.86 30.19 29.99 31.06 31.05 31.23 32.13 31.98 32.72 32.89 33.78 35.04 35.15 34.87 36.00 36.68 37.53 37.42 36.34 36.18 35.38 36.00 37.56 37.51 41.07 42.08 43.45 43.41 41.67 41.07 41.61 42.08 43.65 43.95 45.11 44.93 43.71 43.43 42.15 42.38
38.23 37.29 35.77 31.03 30.21 30.49 30.73 30.34 30.33 30.30 33.10 33.32 33.53 33.06 33.41 33.78 34.53 34.90 35.52 35.83 36.16 35.67 34.62 34.79 34.50 34.38 37.01 38.32 40.27 40.15 38.27 38.39 37.94 38.59 39.14 39.98 42.85 42.10 42.16 42.10 41.38 41.10 42.13
39.30 37.89 34.67 32.03 31.31 31.16 30.11 29.73 29.44 31.68 32.73 32.82 32.43 31.97 31.85 32.88 32.97 32.10 32.51 32.93 33.09 32.81 33.59 33.52 32.85 33.40 34.02 37.68 38.57 39.02 39.28 38.84 36.88 36.50 37.78 39.03 40.67 40.30 40.41 40.05 40.93 40.81 39.86
39.25 37.90 34.94 32.20 30.83 30.47 29.68 28.70 29.60 31.38 31.82 31.19 30.18 30.40 30.77 30.63 31.66 29.86 30.22 30.38 30.78 30.32 29.83 30.44 30.04 30.42 32.16 32.92 36.12 37.06 37.68 38.62 37.04 36.85 37.09 37.45 36.87 36.41 35.83 36.49 36.24 35.71 34.29
39.09 38.09 35.56 32.68 29.97 29.60 29.93 29.12 29.86 30.94 30.57 29.30 29.33 29.30 29.03 28.42 28.67 30.53 30.26 28.89 28.50 28.55 29.15 28.65 28.03 28.67 29.57 30.45 31.77 32.23 32.84 34.91 35.01 35.27 34.03 33.94 33.55 33.56 32.58 31.81 31.48 31.17 31.06
39.61 37.84 35.53 33.32 31.15 29.79 29.12 29.20 29.76 29.86 29.14 28.86 29.18 28.25 29.04 28.01 28.11 28.99 28.37 27.80 29.49 30.63 28.85 28.71 28.82 27.86 27.86 30.40 33.27 33.11 31.70 31.95 33.11 31.38 29.72 28.54 27.89 27.38 27.60 28.23 28.45 28.85 29.47
39.31 37.17 35.73 33.75 31.72 29.83 29.10 28.94 29.49 29.30 28.33 28.07 28.47 28.42 27.27 26.79 27.87 26.80 26.68 32.54 32.19 32.53 32.94 32.89 31.27 29.80 32.42 33.13 33.34 33.73 34.11 34.20 33.35 28.87 26.65 26.36 26.92 26.35 26.48 26.78 27.53 27.96 28.49
MSLP
1013.97 1013.72 1013.45 1013.39 1013.31 1013.13 1012.84 1012.48 1012.29 1012.13 1012.27 1012.54 1012.77 1012.87 1012.65 1012.67 1012.46 1012.28 1012.09 1011.97 1011.94 1012.01 1012.14 1012.54 1012.76 1013.06 1013.47 1013.67 1013.89 1014.48 1014.45 1014.76 1014.92 1015.63 1015.99 1016.24 1016.31 1016.54 1016.66 1016.85 1017.07 1017.19 1017.25
1014.79 1014.52 1014.19 1013.96 1013.74 1013.42 1013.15 1012.64 1012.00 1011.57 1011.54 1011.76 1011.93 1012.20 1012.03 1011.87 1011.79 1011.60 1011.36 1011.33 1011.31 1011.34 1011.49 1011.65 1011.87 1012.20 1012.55 1012.90 1013.24 1013.52 1014.15 1014.51 1014.74 1014.98 1015.81 1016.25 1016.52 1016.37 1016.31 1016.51 1016.73 1016.84 1016.91
1015.76 1015.41 1015.02 1014.67 1014.14 1013.59 1013.04 1012.34 1011.71 1011.06 1010.78 1010.91 1011.21 1011.41 1011.47 1011.34 1011.25 1010.87 1010.75 1010.57 1010.49 1010.55 1010.61 1010.91 1011.30 1011.44 1011.79 1012.14 1012.44 1012.94 1013.45 1014.07 1014.38 1014.33 1014.72 1015.78 1015.87 1016.22 1016.02 1015.89 1016.03 1016.20 1016.40
1016.58 1016.34 1015.75 1015.00 1014.34 1013.33 1012.55 1011.86 1011.18 1010.45 1010.05 1010.12 1010.32 1010.67 1010.79 1010.63 1010.17 1010.27 1010.23 1010.07 1009.92 1009.90 1009.86 1009.98 1010.35 1010.76 1011.03 1011.34 1011.80 1012.24 1012.57 1013.21 1013.75 1014.31 1014.22 1014.19 1014.67 1015.28 1016.04 1015.58 1015.46 1015.60 1015.77
1017.34 1016.68 1015.86 1015.05 1014.10 1012.94 1011.90 1010.91 1010.24 1009.71 1009.26 1009.24 1009.54 1009.91 1009.96 1009.75 1009.55 1009.57 1009.41 1009.28 1009.22 1009.19 1009.24 1009.37 1009.54 1009.94 1010.19 1010.44 1010.96 1011.43 1011.90 1012.18 1012.93 1013.30 1013.79 1014.25 1014.23 1014.87 1015.11 1015.49 1015.00 1015.06 1014.90
1017.47 1016.88 1016.10 1015.18 1013.90 1012.42 1010.80 1009.83 1009.04 1008.79 1008.44 1008.55 1008.77 1008.97 1009.00 1009.12 1009.32 1009.06 1008.67 1008.27 1008.28 1008.34 1008.47 1008.63 1008.78 1009.12 1009.47 1009.69 1010.12 1010.63 1011.08 1011.39 1011.81 1012.38 1012.91 1013.20 1013.78 1013.85 1014.47 1014.96 1014.50 1014.54 1014.29
1017.34 1016.60 1015.78 1014.81 1013.48 1012.15 1011.10 1010.03 1008.56 1008.05 1007.83 1007.87 1007.89 1007.97 1008.02 1008.30 1008.35 1008.28 1008.19 1007.73 1007.33 1007.39 1007.44 1007.80 1008.09 1008.31 1008.76 1009.23 1009.60 1009.95 1010.69 1010.85 1011.22 1011.48 1012.07 1012.57 1012.77 1012.99 1013.68 1014.07 1014.39 1014.01 1013.80
1017.34 1016.60 1015.70 1014.74 1013.67 1012.57 1011.58 1010.63 1009.61 1008.12 1007.61 1007.47 1007.31 1007.11 1007.19 1007.42 1007.51 1007.51 1007.43 1007.07 1006.62 1006.36 1006.59 1007.11 1007.32 1007.72 1008.09 1008.44 1008.97 1009.43 1009.78 1010.43 1010.67 1010.91 1011.27 1011.58 1011.97 1012.50 1013.18 1013.33 1013.55 1013.82 1013.88
1016.83 1016.09 1015.40 1014.69 1013.84 1012.99 1012.11 1011.13 1010.04 1008.78 1007.51 1007.17 1006.77 1006.56 1006.49 1006.60 1006.64 1006.67 1006.71 1006.39 1005.82 1005.64 1005.82 1006.35 1006.63 1006.99 1007.49 1007.88 1008.30 1008.68 1009.15 1009.47 1009.95 1010.42 1010.68 1011.20 1011.37 1011.80 1012.30 1012.78 1012.94 1013.33 1013.36
1016.60 1016.09 1015.43 1014.68 1013.94 1013.24 1012.40 1011.49 1010.50 1009.43 1008.38 1007.18 1006.39 1006.09 1005.99 1005.90 1005.91 1006.02 1005.95 1005.71 1005.40 1005.26 1005.03 1005.55 1005.88 1006.26 1006.75 1007.18 1007.65 1008.04 1008.37 1008.82 1009.06 1009.58 1009.99 1010.36 1010.69 1011.15 1011.57 1011.87 1012.22 1012.49 1012.54
1016.66 1016.14 1015.41 1014.68 1013.98 1013.24 1012.35 1011.56 1010.82 1009.93 1008.96 1007.77 1006.82 1005.64 1005.32 1005.23 1005.25 1005.28 1005.13 1005.03 1004.90 1004.49 1004.65 1004.71 1005.17 1005.69 1006.09 1006.36 1006.81 1007.23 1007.70 1008.32 1008.60 1008.88 1009.10 1009.57 1009.99 1010.23 1010.71 1011.12 1011.25 1011.68 1011.97
1016.32 1015.78 1015.29 1014.70 1013.94 1013.29 1012.62 1011.86 1011.03 1010.31 1009.54 1008.40 1006.96 1006.14 1004.83 1004.50 1004.60 1004.58 1004.55 1004.57 1004.36 1004.27 1004.20 1004.20 1004.73 1005.19 1005.47 1005.80 1006.21 1006.67 1006.99 1007.60 1008.07 1008.37 1008.70 1008.92 1009.40 1009.55 1010.21 1010.08 1010.50 1010.54 1010.86
1015.76 1015.51 1015.14 1014.86 1014.27 1013.56 1012.80 1012.15 1011.26 1010.48 1009.74 1008.70 1007.79 1006.87 1006.01 1004.94 1004.18 1004.02 1003.94 1004.08 1004.32 1004.37 1004.31 1003.99 1004.33 1004.99 1005.25 1005.42 1005.69 1005.97 1006.35 1006.78 1007.20 1007.42 1007.85 1008.24 1008.66 1008.95 1009.35 1009.48 1009.87 1009.95 1010.07
1015.48 1015.37 1015.18 1014.92 1014.42 1013.92 1013.13 1012.50 1011.52 1010.86 1010.29 1009.63 1008.79 1007.64 1006.56 1005.69 1004.82 1004.14 1003.63 1003.61 1003.82 1004.12 1003.99 1003.88 1004.11 1004.33 1004.53 1004.80 1005.12 1005.47 1005.94 1006.22 1006.40 1006.60 1006.86 1007.27 1007.52 1007.82 1008.25 1008.51 1008.91 1009.30 1009.44
1015.28 1015.25 1015.12 1014.88 1014.33 1013.91 1013.12 1012.67 1012.36 1011.28 1010.82 1010.36 1009.35 1008.21 1007.01 1005.94 1004.92 1004.18 1003.63 1003.24 1003.37 1003.42 1003.43 1003.60 1003.78 1003.75 1003.95 1004.29 1004.79 1004.94 1005.38 1005.66 1005.83 1005.85 1006.03 1006.22 1006.45 1006.72 1007.00 1007.55 1008.01 1008.37 1008.64
1014.98 1015.02 1014.92 1014.71 1014.27 1013.96 1013.35 1012.87 1012.57 1012.04 1011.48 1010.87 1009.95 1008.66 1007.31 1006.02 1004.94 1004.30 1003.89 1003.86 1003.67 1003.85 1003.81 1004.01 1004.16 1004.21 1003.97 1003.99 1004.01 1004.30 1004.83 1005.10 1005.42 1005.62 1005.65 1005.55 1005.67 1005.94 1006.11 1006.48 1006.73 1006.95 1007.47
1014.54 1014.73 1014.83 1014.82 1014.55 1014.22 1013.75 1013.15 1012.81 1012.44 1011.81 1011.45 1010.40 1009.34 1008.06 1006.80 1005.51 1004.78 1004.67 1004.88 1005.01 1005.04 1005.18 1005.29 1005.25 1005.29 1005.21 1004.83 1004.44 1004.33 1004.25 1004.70 1005.08 1005.40 1005.56 1005.37 1005.35 1005.40 1005.47 1005.74 1005.84 1006.02 1006.14
1014.23 1014.52 1014.78 1014.81 1014.78 1014.61 1014.23 1013.70 1013.30 1012.81 1012.26 1011.64 1010.79 1009.93 1008.94 1007.88 1006.93 1006.23 1006.07 1006.07 1006.13 1006.35 1006.49 1006.53 1006.54 1006.31 1005.88 1004.82 1003.89 1003.84 1004.29 1004.85 1005.44 1005.71 1005.78 1006.15 1006.38 1006.03 1005.56 1005.19 1005.41 1005.55 1005.62
1013.98 1014.35 1014.54 1014.72 1014.74 1014.77 1014.50 1014.10 1013.89 1013.42 1012.75 1012.04 1011.45 1010.61 1009.78 1009.12 1008.37 1007.64 1007.45 1007.35 1007.20 1007.52 1007.51 1007.58 1007.40 1006.91 1006.37 1005.37 1003.77 1002.98 1003.91 1005.09 1005.91 1006.24 1006.54 1006.78 1006.70 1006.49 1005.90 1005.49 1005.34 1005.93 1006.33
1013.76 1014.12 1014.27 1014.39 1014.81 1014.87 1014.66 1014.31 1014.20 1013.88 1013.33 1012.71 1012.13 1011.52 1010.81 1010.14 1009.58 1009.27 1008.82 1008.74 1008.48 1008.77 1008.68 1008.43 1008.26 1007.91 1007.16 1006.45 1005.18 1004.35 1004.74 1005.41 1005.97 1006.91 1007.20 1006.94 1007.32 1006.92 1006.71 1006.38 1006.22 1006.54 1007.11
1013.70 1014.02 1014.26 1014.28 1014.48 1014.66 1014.71 1014.75 1014.44 1014.07 1013.59 1013.13 1012.61 1012.06 1011.44 1010.92 1010.50 1010.06 1009.51 1009.46 1009.42 1009.00 1009.38 1009.28 1009.05 1008.78 1008.51 1007.73 1006.82 1006.42 1006.56 1006.77 1007.18 1007.30 1007.70 1007.84 1007.52 1007.57 1007.59 1007.15 1007.21 1007.55 1007.73
1013.43 1013.77 1014.18 1014.48 1014.33 1014.41 1014.51 1014.67 1014.62 1014.16 1013.66 1013.26 1012.79 1012.40 1012.03 1011.60 1011.36 1011.03 1010.62 1010.22 1010.15 1010.11 1009.97 1009.93 1009.87 1009.82 1009.49 1008.83 1008.35 1008.00 1007.87 1008.02 1008.00 1008.02 1008.20 1008.06 1008.13 1008.13 1007.99 1008.03 1007.92 1007.78 1007.89
1012.86 1013.38 1013.81 1014.01 1014.18 1014.38 1014.47 1014.44 1014.17 1013.91 1013.73 1013.47 1013.23 1012.85 1012.43 1012.23 1012.08 1012.08 1011.81 1011.42 1011.20 1011.08 1011.08 1010.89 1010.74 1010.61 1010.35 1009.95 1009.47 1009.05 1008.73 1008.45 1008.18 1008.39 1008.63 1008.79 1008.90 1008.96 1008.99 1008.91 1008.78 1008.69 1008.72
1012.09 1012.68 1013.24 1013.59 1013.84 1013.95 1014.18 1014.44 1014.51 1014.09 1013.37 1013.34 1013.59 1013.47 1013.18 1012.95 1012.72 1012.64 1012.66 1012.53 1012.27 1012.01 1011.87 1011.77 1011.55 1011.44 1011.16 1010.87 1010.56 1010.17 1009.74 1009.40 1009.26 1009.39 1009.58 1009.78 1009.88 1009.76 1009.63 1009.43 1009.42 1009.53 1009.58
1011.34 1011.86 1012.38 1012.90 1013.29 1013.58 1013.84 1013.97 1014.01 1014.02 1014.00 1013.62 1013.26 1013.38 1013.55 1013.57 1013.63 1013.34 1013.24 1013.09 1012.93 1012.62 1012.42 1012.38 1012.21 1011.84 1011.62 1011.49 1011.34 1010.98 1010.55 1010.34 1010.38 1010.48 1010.57 1010.57 1010.50 1010.41 1010.37 1010.34 1010.28 1010.20 1010.03
1010.75 1011.30 1011.75 1012.27 1012.58 1012.78 1013.12 1013.43 1013.69 1013.87 1013.71 1013.51 1013.57 1013.69 1013.74 1013.57 1013.67 1013.85 1013.88 1013.63 1013.47 1013.24 1012.95 1012.85 1012.77 1012.77 1012.41 1012.12 1011.79 1011.52 1011.21 1011.07 1011.21 1011.28 1011.38 1011.48 1011.50 1011.51 1011.55 1011.41 1011.22 1011.02 1010.81
Wind_Speed
10 12 13 12 12 9 8 8 8 10 8 7 7 9 10 9 10 11 14 11 10 12 9 8 6 9 8 10 12 9 9 8 9 3 2 3 6 6 5 5 5 6 7
16 16 17 16 15 14 15 14 11 9 9 7 4 6 4 7 8 8 11 13 10 12 13 7 11 11 8 10 12 11 8 8 6 8 5 3 3 4 6 5 6 7 5
18 17 20 19 19 19 19 18 17 15 10 10 6 7 6 7 8 9 8 11 15 15 13 14 8 12 10 10 10 11 12 9 7 9 6 4 6 3 3 7 6 8 6
17 17 19 20 20 21 20 19 18 15 8 9 8 12 11 12 11 11 10 10 13 15 14 13 14 10 10 11 11 10 12 13 9 4 9 3 4 4 2 4 8 8 9
18 19 20 21 22 21 19 17 17 17 9 8 10 9 12 11 10 9 11 13 11 15 15 13 12 12 10 9 13 12 13 10 9 8 7 9 2 3 3 4 7 8 9
17 16 16 18 18 17 15 16 18 12 8 8 10 13 15 14 11 12 11 10 10 10 15 15 13 10 8 11 7 12 13 13 12 11 12 10 9 5 3 3 3 8 9
14 15 16 17 17 19 19 17 9 9 9 10 12 13 15 15 16 14 11 13 10 10 12 15 12 10 10 8 6 9 11 13 12 12 10 9 9 4 8 5 4 4 5
14 13 15 15 17 19 19 19 20 10 7 7 9 11 13 10 11 14 12 11 11 10 13 10 13 12 11 8 10 5 8 11 11 11 11 9 9 6 7 8 6 2 4
13 14 13 12 13 14 16 19 19 19 8 8 7 7 7 11 13 14 13 12 12 10 9 13 10 13 13 12 7 9 10 8 10 12 13 11 9 8 8 6 7 8 9
11 12 12 13 12 13 13 16 18 18 17 9 7 6 8 10 11 11 13 14 12 12 10 13 12 11 11 10 11 8 9 10 8 9 11 12 8 7 8 8 10 9 11
10 10 11 11 12 13 13 14 15 17 17 14 13 8 7 8 8 10 11 12 12 8 7 9 10 9 11 9 7 8 8 11 10 6 11 14 12 9 10 10 10 10 11
11 9 11 12 13 14 13 14 15 15 15 15 13 16 8 7 7 8 10 11 13 7 6 7 7 10 7 7 8 8 7 7 12 13 11 12 7 10 7 6 11 11 11
8 9 11 12 13 14 14 14 14 15 16 17 15 14 14 10 6 7 8 10 9 8 8 6 6 7 8 7 7 8 9 10 9 14 15 15 15 12 10 10 10 8 8
6 7 8 10 12 12 13 14 14 13 15 15 15 14 13 12 10 7 7 8 9 9 7 7 7 7 7 8 7 7 7 7 8 9 14 15 16 16 14 12 13 12 11
5 6 7 8 9 12 13 13 13 14 13 15 15 14 13 12 10 8 7 7 7 8 8 8 8 7 8 6 7 7 8 9 7 8 11 14 15 17 16 10 12 12 11
5 6 7 8 10 11 13 12 11 12 13 13 14 15 14 13 10 7 7 6 6 6 7 7 5 5 4 7 12 10 7 7 7 9 10 8 13 16 21 19 19 17 13
4 6 6 7 7 8 11 12 10 11 10 12 14 14 14 13 13 10 10 10 9 10 10 11 10 9 8 18 13 10 9 8 7 4 4 5 3 7 12 19 21 19 19
4 5 5 6 7 7 10 10 10 11 11 11 12 14 14 14 14 14 14 13 11 12 11 12 11 10 10 20 12 12 6 4 8 8 7 9 7 8 5 9 12 17 15
1 1 3 3 5 7 9 8 9 11 11 12 13 13 13 14 14 15 14 11 12 11 11 10 12 12 13 22 13 8 8 12 12 11 11 8 8 13 11 6 8 8 7
2 1 5 1 5 6 7 6 7 9 11 12 12 11 11 11 11 10 10 10 10 9 8 9 10 16 12 24 24 17 9 11 9 8 9 18 10 16 15 9 7 7 7
4 2 4 2 2 3 5 6 5 7 7 9 8 9 10 8 10 8 6 6 5 7 7 9 9 12 14 16 26 23 10 7 7 7 6 6 16 17 15 15 9 7 4
4 4 2 3 1 2 2 3 5 6 6 5 6 7 8 9 8 9 9 8 8 8 7 7 7 7 10 20 21 21 18 11 7 7 5 8 14 17 19 12 16 16 11
6 5 4 3 2 1 3 3 2 4 6 6 6 6 5 8 8 9 9 7 8 7 7 6 6 7 8 9 19 20 18 16 9 8 13 16 16 15 12 19 19 14 7
7 5 5 4 3 2 1 2 5 6 3 5 6 5 6 5 7 6 7 7 7 6 6 6 6 6 7 8 8 8 8 12 9 10 10 12 13 16 13 11 11 8 7
6 6 6 6 5 4 3 3 0 3 5 4 5 4 4 5 4 6 5 5 7 8 6 6 6 6 8 10 12 12 7 5 10 7 6 6 7 8 8 7 8 7 8
6 6 7 7 6 6 5 5 3 1 1 3 3 4 3 4 3 3 3 11 12 14 14 16 10 6 14 16 14 13 18 16 14 6 7 8 8 8 7 7 6 7 9
Wind_Direction
331 331 330 332 329 309 284 252 237 235 229 235 238 244 240 241 238 234 239 233 222 225 212 210 203 202 209 214 209 214 211 205 201 160 202 215 207 194 195 201 203 197 195
339 331 330 326 321 317 315 304 281 258 232 229 223 236 237 238 244 234 235 237 236 220 225 210 207 208 205 204 206 202 208 214 215 188 176 202 260 242 201 191 200 207 200
334 333 328 322 316 309 300 291 288 269 239 221 227 240 245 250 250 242 237 231 228 233 220 221 224 208 210 212 205 201 195 208 212 211 155 169 212 181 221 205 201 204 206
337 326 318 313 305 298 291 286 282 272 249 212 218 226 233 238 238 238 243 235 231 232 231 216 215 219 207 213 209 211 211 203 205 209 229 173 144 182 219 238 214 209 217
328 320 313 308 305 297 288 275 268 268 243 221 219 227 239 242 241 235 232 233 232 227 228 226 212 218 224 215 207 200 203 201 202 202 198 236 194 271 130 225 208 216 217
320 311 312 311 306 312 294 275 257 239 231 228 227 230 237 240 245 241 238 230 227 227 225 223 219 211 213 223 213 210 207 210 214 215 212 203 208 191 163 218 168 210 218
328 329 329 328 329 333 336 337 282 242 234 232 232 230 235 240 244 242 240 236 223 219 219 217 218 211 210 216 211 208 215 212 212 199 210 217 221 210 215 209 219 194 213
333 333 334 333 334 340 342 338 331 301 285 267 251 235 235 238 243 243 243 243 230 216 214 216 216 214 206 195 210 222 207 212 223 217 216 217 213 204 214 221 193 229 230
332 336 331 333 337 339 340 336 333 329 288 278 264 254 237 234 239 242 242 245 234 214 204 212 211 211 208 209 198 205 225 204 207 219 211 216 214 209 212 216 226 219 235
327 328 332 341 343 346 342 341 340 335 323 296 244 241 245 245 235 237 237 245 249 223 206 206 207 203 205 198 201 212 210 209 200 206 211 223 214 209 214 213 219 220 232
315 321 325 336 342 344 350 352 350 344 336 336 335 252 230 230 229 233 237 245 240 245 219 196 202 201 199 195 191 194 203 210 210 194 210 222 223 219 216 210 210 218 217
315 320 330 332 336 340 349 351 355 353 345 339 343 343 245 224 226 229 234 239 240 222 232 213 188 204 202 193 195 194 201 203 217 229 222 226 217 211 220 207 220 218 221
314 331 338 342 337 339 344 348 351 356 349 347 347 345 341 333 253 228 224 225 243 247 230 225 197 201 204 201 206 196 203 215 216 216 225 226 221 214 212 207 219 216 209
323 324 331 332 331 339 338 347 343 350 354 353 343 336 337 327 315 323 239 205 213 219 219 205 218 212 206 199 199 197 204 214 222 210 211 213 210 212 209 214 221 228 230
332 316 324 327 329 341 337 347 355 341 2 347 334 335 335 323 310 294 300 222 209 216 215 218 216 208 219 217 213 204 209 222 222 226 212 213 214 211 209 206 217 218 225
321 318 320 337 338 347 337 346 354 347 353 342 337 336 346 338 322 284 295 1 357 26 38 30 8 332 288 258 216 207 213 214 227 244 241 223 211 216 210 208 210 209 214
332 330 335 345 336 344 337 343 356 347 355 354 348 348 354 1 13 41 52 52 49 53 49 42 36 29 8 342 299 265 224 224 221 233 287 264 286 235 221 224 222 218 212
341 335 342 340 338 346 340 341 360 352 355 5 356 360 4 13 23 43 49 50 52 50 48 42 36 34 11 349 290 222 225 108 79 67 69 71 48 11 316 238 230 233 227
249 327 329 337 3 352 333 350 356 354 356 6 3 4 6 18 23 36 40 45 55 51 48 42 31 28 20 16 27 137 147 100 87 70 62 66 53 27 26 70 88 67 39
147 243 297 8 26 347 333 7 1 354 0 355 358 358 2 26 28 33 37 44 56 56 48 49 39 32 25 29 42 63 82 90 81 72 64 54 59 56 49 60 56 63 21
212 178 312 4 75 15 348 357 3 355 338 351 357 358 2 15 18 26 33 55 64 68 50 46 39 33 28 36 46 51 53 70 81 68 62 55 57 58 54 55 51 53 26
229 173 264 302 327 59 13 4 355 325 324 354 355 3 11 12 25 22 20 23 36 34 45 55 49 34 29 35 45 53 58 65 87 80 65 58 55 55 49 44 41 38 34
216 177 205 254 276 42 353 1 314 341 336 11 8 4 25 32 21 36 25 25 32 36 36 34 39 32 23 25 31 38 44 46 64 62 64 62 55 52 49 43 40 35 30
197 196 195 234 246 153 24 359 335 330 18 61 22 4 359 65 41 33 43 38 32 34 29 34 30 32 29 26 19 21 20 23 47 56 55 55 54 51 43 36 31 25 22
190 179 194 216 222 169 184 153 296 333 341 49 78 26 23 22 66 60 49 47 45 45 39 27 28 33 30 29 27 31 30 32 52 60 53 45 37 32 28 27 22 22 21
189 188 197 206 214 187 190 164 162 285 41 76 48 43 41 40 36 88 48 66 72 59 50 48 47 26 37 30 31 38 41 44 47 43 44 44 39 34 27 23 19 20 15